HULIANGWANG DIGUI-08

Last updated on Thu Jan 16 2025 00:02:04 GMT+0000 (Coordinated Universal Time)

1 62330U 24240H 25015.54231390 .00000064 00000+0 93919-4 0 9990 2 62330 86.5070 158.4249 0010094 201.8959 158.1752 13.37555755 4035
UTC large
Height (km)
Speed (km/s)
/
Latitude / Longitude
Inclination (degrees)
Orbital Period (minutes)
Azimuth
Elevation
Range (km)
Doppler Factor

Next 0 passes for location: London (51.5072 / 0.1276)

Sorry there are no passes over London.